CW4674 Karlstad SE current weather conditions

sailwx.info

Wind from 233

Air temperature 1.1° C
Dewpoint -0.3° C

Last reported at 2019-Dec-07 17:18 UTC.
Time now 2019-Dec-07 18:47 UTC

Location: N 59°24' E 013°36'.
View on Google Maps.

See reports from other nearby stations

  
Tides and Currents Weather Stations Pressure Air Temp Water Temp Dewpoint Dewpoint Depression Visibility Wind Speed Wind Dir Waves Ship Positions
date/time (UTC)wind fromknots sea level pressurealtimeterstation pressurevisibilityair tempwater tempwave heightnotes
2019-Dec-07 17:18 233 1.1
2019-Dec-07 17:09 211 2 gusting 3 1.1
2019-Dec-07 17:00 229 1.1
2019-Dec-07 16:18 225 1.1
2019-Dec-07 16:09 230 1.1
2019-Dec-07 16:00 227 2 gusting 3 1.7
2019-Dec-07 15:09 232 1.7
2019-Dec-07 15:00 247 1.7
2019-Dec-07 14:51 250 1.7
2019-Dec-07 14:33 243 0 gusting 1 2.2
2019-Dec-07 14:18 238 1 gusting 3 2.2
2019-Dec-07 14:09 315 2.2
2019-Dec-07 13:33 243 2.8
2019-Dec-07 13:18 236 1 gusting 5 2.8
2019-Dec-07 13:00 299 2.8
2019-Dec-07 12:42 255 0 gusting 6 2.8
2019-Dec-07 12:18 250 2.8
2019-Dec-07 12:09 237 2.8
2019-Dec-07 12:00 238 3.3
2019-Dec-07 11:51 247 1 gusting 7 3.3
2019-Dec-07 11:42 250 3.3
2019-Dec-07 11:18 248 3.3
2019-Dec-07 11:09 247 3.3
2019-Dec-07 11:00 251 3.3
2019-Dec-07 10:42 241 3.3
2019-Dec-07 10:33 235 3.3
2019-Dec-07 10:18 225 2 gusting 6 3.3
2019-Dec-07 10:09 229 4 gusting 6 3.3
2019-Dec-07 10:00 229 1 gusting 3 3.3
2019-Dec-07 09:51 087 3.3
2019-Dec-07 09:42 240 3.3
2019-Dec-07 09:33 220 1 gusting 3 2.8
2019-Dec-07 09:17 349 0 gusting 3 2.8
2019-Dec-07 09:08 310 3.3
2019-Dec-07 08:50 019 1 gusting 1 3.3
2019-Dec-07 08:32 291 0 gusting 1 3.3
2019-Dec-07 08:17 274 3.3
2019-Dec-07 08:08 242 3.3
2019-Dec-07 07:59 273 3.3
2019-Dec-07 07:50 322 3.3
2019-Dec-07 07:41 303 3.3
2019-Dec-07 07:32 248 3.3
2019-Dec-07 07:17 219 1 gusting 5 3.3
2019-Dec-07 06:59 229 3.3
2019-Dec-07 06:50 241 3.9
2019-Dec-07 06:32 245 3.9
2019-Dec-07 06:17 356 3.9
2019-Dec-07 05:50 358 3.9
2019-Dec-07 05:17 010 3.9
2019-Dec-07 04:50 004 4.4
2019-Dec-07 04:32 359 0 gusting 3 4.4
2019-Dec-07 03:41 358 1 gusting 3 5.6
2019-Dec-07 03:32 003 5.6
2019-Dec-07 03:17 347 0 gusting 2 5.6
2019-Dec-07 02:59 018 5.6
2019-Dec-07 02:41 023 6.1
2019-Dec-07 02:32 030 0 gusting 7 6.7
2019-Dec-07 01:59 216 0 gusting 6 6.7
2019-Dec-07 01:50 214 2 gusting 6 6.7
2019-Dec-07 01:41 210 0 gusting 4 6.7
2019-Dec-07 01:21 213 6.7
2019-Dec-07 00:08 6.1
2019-Dec-06 23:08 045 6.1
2019-Dec-06 22:50 6.1
2019-Dec-06 22:41 6.1
2019-Dec-06 22:32 5.6
2019-Dec-06 22:17 5.6
2019-Dec-06 21:59 5.6
2019-Dec-06 21:16 5.6
2019-Dec-06 21:07 5.6
2019-Dec-06 20:58 5.6
2019-Dec-06 20:31 5.6
2019-Dec-06 20:16 5.6
2019-Dec-06 19:49 5.6
2019-Dec-06 19:31 5.6
2019-Dec-06 19:16 5.6
2019-Dec-06 18:58 5.6
2019-Dec-06 18:31 218 5.6
2019-Dec-06 18:07 226 5.6
2019-Dec-06 17:58 218 1 gusting 4 6.1
2019-Dec-06 17:49 221 1 gusting 4 6.1
2019-Dec-06 17:40 212 0 gusting 4 6.1
2019-Dec-06 17:31 219 3 gusting 6 6.1
2019-Dec-06 17:16 212 4 gusting 7 6.1
2019-Dec-06 16:58 222 4 gusting 4 6.1
2019-Dec-06 16:49 213 6.1
2019-Dec-06 16:16 208 0 gusting 3 6.1
2019-Dec-06 16:07 213 6.7
2019-Dec-06 15:58 212 1 gusting 4 6.7
2019-Dec-06 15:49 213 6.7
2019-Dec-06 15:31 217 2 gusting 4 6.7
2019-Dec-06 15:16 211 1 gusting 5 6.7
2019-Dec-06 15:07 220 1 gusting 4 6.7
2019-Dec-06 14:49 209 6.7
2019-Dec-06 14:31 213 0 gusting 5 6.1
2019-Dec-06 14:16 210 1 gusting 3 6.1
2019-Dec-06 13:58 175 6.1
2019-Dec-06 13:40 224 6.7
2019-Dec-06 13:16 212 6.1
2019-Dec-06 13:07 206 6.1
2019-Dec-06 12:58 203 6.1
2019-Dec-06 12:40 218 6.1
2019-Dec-06 11:58 225 6.7
2019-Dec-06 11:40 217 1 gusting 5 6.7
2019-Dec-06 11:16 223 2 gusting 11 6.7
2019-Dec-06 11:07 238 3 gusting 5 6.7
2019-Dec-06 10:58 231 5 gusting 6 6.7
2019-Dec-06 10:31 220 2 gusting 6 6.1
2019-Dec-06 10:16 219 1 gusting 6 6.1
2019-Dec-06 10:07 221 2 gusting 11 6.1
2019-Dec-06 09:49 220 4 gusting 7 6.1
2019-Dec-06 09:06 214 3 gusting 10 6.7
2019-Dec-06 08:57 218 2 gusting 10 6.7
2019-Dec-06 08:48 216 1 gusting 7 6.7
2019-Dec-06 08:39 212 2 gusting 7 6.7
2019-Dec-06 08:15 214 6.1
2019-Dec-06 07:57 210 1 gusting 5 6.1
2019-Dec-06 07:48 218 1 gusting 4 6.1
2019-Dec-06 07:30 203 6.1
2019-Dec-06 07:15 214 3 gusting 7 6.7
2019-Dec-06 07:06 216 6.7
2019-Dec-06 06:39 220 1 gusting 8 6.7
2019-Dec-06 06:30 219 3 gusting 6 6.7
2019-Dec-06 06:06 214 4 gusting 4 6.1
2019-Dec-06 05:48 212 0 gusting 5 6.1
2019-Dec-06 04:30 217 3 gusting 8 6.1
2019-Dec-06 04:15 219 4 gusting 13 6.1
2019-Dec-06 03:57 219 5.6
2019-Dec-06 03:15 218 1 gusting 9 5.6
2019-Dec-06 03:06 216 5 gusting 13 5.6
2019-Dec-06 02:57 222 7 gusting 12 5.6
2019-Dec-06 02:48 222 3 gusting 14 5.6
2019-Dec-06 02:39 216 6 gusting 7 5.6
2019-Dec-06 02:30 215 2 gusting 10 5.6
2019-Dec-06 02:15 213 2 gusting 6 5.6
2019-Dec-06 01:57 225 1 gusting 10 5.6
2019-Dec-06 01:48 216 7 gusting 10 5.6
2019-Dec-06 01:12 215 3 gusting 10 5.6
2019-Dec-06 00:06 210 2 gusting 9 5.6
2019-Dec-05 23:57 217 5.6
2019-Dec-05 23:48 219 3 gusting 8 5.6
2019-Dec-05 23:39 216 7 gusting 8 5.6
2019-Dec-05 23:30 222 5.6
2019-Dec-05 23:15 219 1 gusting 8 5.6
2019-Dec-05 23:06 217 3 gusting 13 5.6
2019-Dec-05 22:48 215 2 gusting 13 5.6
2019-Dec-05 22:15 217 4 gusting 13 6.1
2019-Dec-05 21:30 220 8 gusting 16 6.7
2019-Dec-05 21:05 216 3 gusting 13 6.7
2019-Dec-05 20:56 222 2 gusting 14 6.7
2019-Dec-05 20:47 220 3 gusting 13 6.7
2019-Dec-05 20:38 211 2 gusting 12 6.7
2019-Dec-05 20:29 217 12 gusting 13 6.7
2019-Dec-05 20:05 215 9 gusting 14 6.7
2019-Dec-05 19:47 216 4 gusting 13 6.7
2019-Dec-05 19:05 222 3 gusting 14 6.7
2019-Dec-05 18:56 211 2 gusting 12 6.7
2019-Dec-05 18:47 218 2 gusting 15 6.7
2019-Dec-05 18:38 218 10 gusting 13 6.7
2019-Dec-05 18:29 218 4 gusting 16 6.7
2019-Dec-05 18:05 213 3 gusting 11 6.7